"2010-03-31 00:00:00",1808917,9.85,323,2.489,0.37,17.94,108.4703,20.97,22.04,9.87,0,111,13.16,21.79,285.0
"2010-03-31 00:00:30",1808918,10.12,319.7,3.208,0.424,17.87,108.4646,20.95,22.02,9.91,0,111,13.16,21.78,281.7
"2010-03-31 00:01:00",1808919,9.41,316.9,4.451,0.374,17.9,108.4641,20.95,22.02,9.85,0,111,13.16,21.78,278.9
"2010-03-31 00:01:30",1808920,9.08,312.3,2.375,0.302,17.87,108.4653,20.95,22.01,9.79,0,111,13.16,21.78,274.3
"2010-03-31 00:02:00",1808921,9.02,315.9,4.338,0.608,17.81,108.4636,20.95,22.01,9.77,0,111,13.16,21.77,277.9
"2010-03-31 00:02:30",1808922,9.13,319.1,2.433,0.39,17.82,108.4539,20.92,21.99,9.74,0,111,13.16,21.75,281.1
"2010-03-31 00:03:00",1808923,10.14,317,1.867,0.585,17.8,108.4469,20.91,21.97,9.76,0,111,13.16,21.73,279.0
"2010-03-31 00:03:30",1808924,9.94,311.7,2.67,0.317,17.86,108.442,20.89,21.97,9.8,0,111,13.16,21.72,273.7
"2010-03-31 00:04:00",1808925,8.89,308,1.653,0.706,17.85,108.4389,20.89,21.95,9.84,0,111,13.16,21.71,270.0
"2010-03-31 00:04:30",1808926,7.552,308.4,3.894,0.376,17.81,108.4321,20.87,21.94,9.86,0,111,13.16,21.69,270.4
"2010-03-31 00:05:00",1808927,7.979,303.3,4.573,0.529,17.88,108.4343,20.87,21.95,9.79,0,111,13.16,21.70,265.3
"2010-03-31 00:05:30",1808928,7.861,311.3,3.588,0.496,17.75,108.4356,20.88,21.93,9.87,0,111,13.16,21.70,273.3
"2010-03-31 00:06:00",1808929,8.69,312.2,6.223,0.292,17.73,108.434,20.87,21.92,9.89,0,111,13.16,21.70,274.2
"2010-03-31 00:06:30",1808930,8.26,303.4,2.665,0.316,17.76,108.4389,20.89,21.92,9.92,0,111,13.16,21.71,265.4
"2010-03-31 00:07:00",1808931,8.55,317.7,5.983,0.496,17.77,108.4362,20.88,21.91,9.91,0,111,13.16,21.70,279.7
"2010-03-31 00:07:30",1808932,7.535,318.9,2.686,0.425,17.76,108.4374,20.88,21.9,9.96,0,111,13.16,21.71,280.9
"2010-03-31 00:08:00",1808933,8.13,315,3.998,0.567,17.75,108.4381,20.88,21.91,9.96,0,111,13.16,21.71,277.0
"2010-03-31 00:08:30",1808934,8.52,317.9,2.517,0.347,17.75,108.4337,20.87,21.89,9.87,0,111,13.16,21.70,279.9
"2010-03-31 00:09:00",1808935,7.898,318.1,2.882,0.23,17.75,108.4265,20.85,21.89,9.92,0,111,13.16,21.68,280.1
"2010-03-31 00:09:30",1808936,7.871,312.4,2.601,0.392,17.76,108.424,20.85,21.88,9.9,0,111,13.16,21.67,274.4
"2010-03-31 00:10:00",1808937,7.29,311.3,2.522,0.362,17.73,108.4197,20.84,21.88,9.88,0,111,13.16,21.66,273.3
"2010-03-31 00:10:30",1808938,7.305,309.3,3.304,0.513,17.69,108.4131,20.82,21.89,9.98,0,111,13.16,21.64,271.3
"2010-03-31 00:11:00",1808939,8.18,309.3,3.017,0.413,17.74,108.4149,20.82,21.86,10.07,0,111,13.16,21.65,271.3
"2010-03-31 00:11:30",1808940,8.95,304.3,5.86,0.478,17.78,108.4165,20.83,21.85,10.17,0,111,13.15,21.65,266.3
"2010-03-31 00:12:00",1808941,9.52,294.6,1.652,0.484,17.76,108.4192,20.84,21.84,9.91,0,111,13.15,21.66,256.6
"2010-03-31 00:12:30",1808942,9.42,300.4,2.325,0.482,17.78,108.4183,20.83,21.83,9.88,0,111,13.15,21.66,262.4
"2010-03-31 00:13:00",1808943,9.62,295.6,3.836,0.826,17.74,108.417,20.83,21.82,9.97,0,111,13.15,21.65,257.6
"2010-03-31 00:13:30",1808944,9.46,288.5,5.222,0.593,17.73,108.4017,20.79,21.82,10.01,0,111,13.15,21.61,250.5
"2010-03-31 00:14:00",1808945,7.176,305.2,5.251,0.551,17.75,108.3936,20.77,21.8,10.15,0,111,13.15,21.59,267.2
"2010-03-31 00:14:30",1808946,6.387,309.4,1.658,0.336,17.73,108.3894,20.76,21.78,10.19,0,111,13.15,21.58,271.4
"2010-03-31 00:15:00",1808947,7.046,299.4,3.569,0.359,17.74,108.387,20.75,21.79,10.23,0,111,13.16,21.58,261.4
"2010-03-31 00:15:30",1808948,7.039,294.9,2.786,0.346,17.7,108.3882,20.76,21.78,10.2,0,111,13.16,21.58,256.9
"2010-03-31 00:16:00",1808949,6.775,297.5,5.28,0.697,17.67,108.3885,20.76,21.77,10.06,0,111,13.16,21.58,259.5
"2010-03-31 00:16:30",1808950,7.859,298.1,3.448,0.428,17.64,108.3885,20.76,21.76,9.93,0,111,13.16,21.58,260.1
"2010-03-31 00:17:00",1808951,8.35,287.2,5.725,1.214,17.7,108.3865,20.75,21.74,9.96,0,111,13.16,21.58,249.2
"2010-03-31 00:17:30",1808952,8.6,283.7,4.87,0.703,17.72,108.3669,20.7,21.75,10.02,0,111,13.16,21.53,245.7
"2010-03-31 00:18:00",1808953,8.87,284.7,5.187,0.654,17.71,108.3574,20.68,21.73,9.95,0,111,13.16,21.50,246.7
"2010-03-31 00:18:30",1808954,9.5,297.5,3.112,1.183,17.72,108.3554,20.67,21.71,9.93,0,111,13.16,21.50,259.5
"2010-03-31 00:19:00",1808955,8.22,277.7,5.403,0.712,17.75,108.3537,20.67,21.69,9.95,0,111,13.16,21.49,239.7
"2010-03-31 00:19:30",1808956,9.26,286.8,6.638,0.723,17.79,108.3349,20.62,21.67,9.93,0,111,13.16,21.44,248.8
"2010-03-31 00:20:00",1808957,9.02,289.4,3.815,0.614,17.74,108.3214,20.58,21.66,9.92,0,111,13.16,21.41,251.4
"2010-03-31 00:20:30",1808958,8.91,293.1,6.593,0.533,17.77,108.3197,20.58,21.63,10.13,0,111,13.16,21.40,255.1
"2010-03-31 00:21:00",1808959,8.44,300.5,3.652,1.187,17.73,108.3032,20.54,21.6,10.27,0,111,13.16,21.36,262.5
"2010-03-31 00:21:30",1808960,7.336,293.4,7.002,0.772,17.72,108.2889,20.5,21.56,10.16,0,111,13.16,21.32,255.4
"2010-03-31 00:22:00",1808961,6.17,283.1,5.685,0.383,17.65,108.2774,20.47,21.54,10.17,0,111,13.16,21.29,245.1
"2010-03-31 00:22:30",1808962,7.618,284.3,6.977,0.869,17.68,108.2566,20.42,21.49,10.25,0,111,13.16,21.24,246.3
"2010-03-31 00:23:00",1808963,7.74,277.6,7.104,0.691,17.68,108.257,20.42,21.46,10.23,0,111,13.16,21.24,239.6
"2010-03-31 00:23:30",1808964,7.561,266.2,2.752,0.445,17.68,108.2561,20.42,21.42,10.18,0,111,13.16,21.24,228.2
"2010-03-31 00:24:00",1808965,6.446,265.7,4.72,0.445,17.71,108.2589,20.42,21.42,10.34,0,111,13.16,21.25,227.7
"2010-03-31 00:24:30",1808966,6.524,259.4,5.608,1.048,17.67,108.2482,20.4,21.4,10.46,0,111,13.16,21.22,221.4
"2010-03-31 00:25:00",1808967,10,273.2,3.792,0.478,17.66,108.2339,20.36,21.38,10.16,0,111,13.16,21.18,235.2
"2010-03-31 00:25:30",1808968,10.31,274.2,2.521,0.497,17.7,108.229,20.35,21.38,10.04,0,111,13.16,21.17,236.2
"2010-03-31 00:26:00",1808969,10.28,273.2,2.308,0.263,17.81,108.2287,20.35,21.37,9.94,0,111,13.16,21.17,235.2
"2010-03-31 00:26:30",1808970,11.01,275.1,3.413,0.619,17.83,108.2287,20.35,21.36,10.07,0,111,13.16,21.17,237.1
"2010-03-31 00:27:00",1808971,8.96,268.4,3.89,1.345,17.79,108.2285,20.35,21.36,10,0,111,13.16,21.17,230.4
"2010-03-31 00:27:30",1808972,8.85,273.9,3.42,1.155,17.7,108.2125,20.3,21.33,10.09,0,111,13.16,21.13,235.9
"2010-03-31 00:28:00",1808973,9.2,264.9,4.789,0.633,17.78,108.1993,20.27,21.32,10.21,0,111,13.16,21.09,226.9
"2010-03-31 00:28:30",1808974,7.967,270.2,7.514,0.498,17.75,108.1956,20.26,21.32,10.17,0,111,13.16,21.08,232.2
"2010-03-31 00:29:00",1808975,8.12,268.8,10.92,0.523,17.73,108.1956,20.26,21.29,10.24,0,111,13.16,21.08,230.8
"2010-03-31 00:29:30",1808976,8.59,265.2,2.708,0.508,17.75,108.1903,20.25,21.26,10.38,0,111,13.16,21.07,227.2
"2010-03-31 00:30:00",1808977,9.79,271.6,2.814,0.604,17.92,108.1731,20.2,21.25,10.19,0,111,13.16,21.03,233.6
"2010-03-31 00:30:30",1808978,9.83,269.6,1.674,0.745,17.86,108.165,20.18,21.24,10.08,0,111,13.16,21.01,231.6
"2010-03-31 00:31:00",1808979,10.61,270.8,3.801,0.76,17.85,108.1619,20.17,21.22,10.16,0,111,13.16,21.00,232.8
"2010-03-31 00:31:30",1808980,11.65,275.1,1.668,0.515,18.02,108.1619,20.17,21.21,10.07,0,111,13.16,21.00,237.1
"2010-03-31 00:32:00",1808981,11.15,274,2.156,0.276,18.07,108.1619,20.17,21.19,9.93,0,111,13.16,21.00,236.0
"2010-03-31 00:32:30",1808982,11.72,275.5,2.353,0.427,18.14,108.1577,20.16,21.18,9.96,0,111,13.16,20.99,237.5
"2010-03-31 00:33:00",1808983,12.08,270.9,2.407,0.305,18.04,108.14,20.12,21.15,9.99,0,111,13.16,20.94,232.9
"2010-03-31 00:33:30",1808984,11.32,266.7,4.709,0.509,18.04,108.1307,20.09,21.15,10.05,0,111,13.17,20.92,228.7
"2010-03-31 00:34:00",1808985,9.44,271.8,3.726,0.342,17.89,108.1282,20.09,21.14,10.15,0,111,13.17,20.91,233.8
"2010-03-31 00:34:30",1808986,9.82,265.8,7.721,0.64,17.8,108.1262,20.08,21.13,10.31,0,111,13.17,20.91,227.8
"2010-03-31 00:35:00",1808987,9,275.7,2.931,0.922,17.81,108.1099,20.04,21.11,10.47,0,111,13.17,20.86,237.7
"2010-03-31 00:35:30",1808988,11.05,283,3.708,0.634,17.93,108.1026,20.02,21.09,10.28,0,111,13.17,20.84,245.0
"2010-03-31 00:36:00",1808989,10.76,286,3.553,0.25,17.96,108.0972,20.01,21.07,10.07,0,111,13.17,20.83,248.0
"2010-03-31 00:36:30",1808990,10.84,277.2,1.037,0.49,17.97,108.0947,20,21.07,10.04,0,111,13.17,20.82,239.2
"2010-03-31 00:37:00",1808991,11.08,276,3.653,0.351,18.04,108.0944,20,21.05,10.02,0,111,13.17,20.82,238.0
"2010-03-31 00:37:30",1808992,10.16,273.7,1.687,0.445,17.94,108.0944,20,21.04,9.98,0,111,13.17,20.82,235.7
"2010-03-31 00:38:00",1808993,10.23,277.8,3.144,0.459,17.83,108.0944,20,21.03,10.04,0,111,13.18,20.82,239.8
"2010-03-31 00:38:30",1808994,9,282.8,4.433,0.744,17.7,108.0944,20,21.01,10.17,0,111,13.18,20.82,244.8
"2010-03-31 00:39:00",1808995,9.7,281.6,5.107,0.674,17.73,108.0945,20,21.01,10.21,0,111,13.18,20.82,243.6
"2010-03-31 00:39:30",1808996,9.52,277.8,4.674,0.376,17.8,108.0881,19.99,21,10.15,0,111,13.18,20.81,239.8
"2010-03-31 00:40:00",1808997,8.73,282,4.174,0.847,17.74,108.0769,19.96,21,10.12,0,111,13.18,20.78,244.0
"2010-03-31 00:40:30",1808998,8.26,293.6,2.888,0.293,17.66,108.0735,19.95,21,10.21,0,111,13.18,20.77,255.6
"2010-03-31 00:41:00",1808999,7.997,294.4,3.845,0.427,17.69,108.0735,19.95,20.99,10.26,0,111,13.18,20.77,256.4
"2010-03-31 00:41:30",1809000,8.07,280.2,3.636,0.513,17.72,108.0761,19.96,20.97,10.23,0,111,13.18,20.78,242.2
"2010-03-31 00:42:00",1809001,7.99,284.1,7.189,0.486,17.66,108.0777,19.96,20.98,10.37,0,111,13.18,20.78,246.1
"2010-03-31 00:42:30",1809002,8.41,288.5,2.242,0.989,17.73,108.0838,19.97,20.96,10.34,0,110.9,13.18,20.80,250.5
"2010-03-31 00:43:00",1809003,10.18,283.4,1.179,0.19,17.87,108.0865,19.98,20.97,10.09,0,111,13.18,20.80,245.4
"2010-03-31 00:43:30",1809004,10.89,285.7,1.579,0.607,17.87,108.0868,19.98,20.96,10.04,0,111,13.18,20.80,247.7
"2010-03-31 00:44:00",1809005,10.74,284.3,1.465,0.312,17.88,108.088,19.99,20.96,10.02,0,111,13.18,20.81,246.3
"2010-03-31 00:44:30",1809006,10.35,278.8,4.981,0.691,17.79,108.0864,19.98,20.93,10.16,0,111,13.17,20.80,240.8
"2010-03-31 00:45:00",1809007,8.95,270.6,3.853,0.558,17.75,108.0827,19.97,20.93,10.26,0,111,13.17,20.79,232.6
"2010-03-31 00:45:30",1809008,10.54,280.2,3.102,0.531,17.83,108.0786,19.96,20.93,10.2,0,111,13.17,20.78,242.2
"2010-03-31 00:46:00",1809009,10.95,284.9,1.623,0.25,17.79,108.0702,19.94,20.93,10.16,0,110.9,13.17,20.76,246.9
"2010-03-31 00:46:30",1809010,10.29,286.5,1.7,0.288,17.8,108.0573,19.91,20.91,10.15,0,111,13.17,20.73,248.5
"2010-03-31 00:47:00",1809011,10.16,283.8,1.407,0.236,17.78,108.0567,19.91,20.92,10.18,0,110.9,13.17,20.73,245.8
"2010-03-31 00:47:30",1809012,10.58,282.7,2.58,0.343,17.87,108.0586,19.91,20.9,10.13,0,110.9,13.17,20.73,244.7
"2010-03-31 00:48:00",1809013,9.96,280.5,1.121,0.185,17.94,108.0616,19.92,20.89,10.08,0,110.9,13.18,20.74,242.5
"2010-03-31 00:48:30",1809014,10.1,277.9,3.077,0.303,17.86,108.0604,19.91,20.89,10.08,0,110.9,13.17,20.74,239.9
"2010-03-31 00:49:00",1809015,10.67,278.7,2.773,0.316,17.86,108.0611,19.92,20.88,10.12,0,110.9,13.17,20.74,240.7
"2010-03-31 00:49:30",1809016,10.77,281,1.405,0.193,17.82,108.0473,19.88,20.89,10.16,0,110.9,13.18,20.70,243.0
"2010-03-31 00:50:00",1809017,10.06,284,1.581,0.455,17.84,108.0398,19.86,20.87,10.14,0,110.9,13.18,20.68,246.0
"2010-03-31 00:50:30",1809018,9.89,280.9,2.628,0.35,17.92,108.0328,19.84,20.86,10.07,0,110.9,13.18,20.67,242.9
"2010-03-31 00:51:00",1809019,9.48,279.3,1.879,0.275,17.91,108.0297,19.84,20.86,10.08,0,110.9,13.18,20.66,241.3
"2010-03-31 00:51:30",1809020,9.49,282.9,1.472,0.323,17.86,108.0297,19.84,20.84,10.08,0,110.9,13.18,20.66,244.9
"2010-03-31 00:52:00",1809021,10.6,275.4,3.24,0.311,17.96,108.0297,19.84,20.83,10.1,0,110.9,13.18,20.66,237.4
"2010-03-31 00:52:30",1809022,10.03,277.7,2.169,0.226,17.97,108.0297,19.84,20.83,10.07,0,110.9,13.18,20.66,239.7
"2010-03-31 00:53:00",1809023,9.51,281.4,2.151,0.306,17.9,108.0277,19.83,20.82,10.09,0,110.9,13.18,20.65,243.4
"2010-03-31 00:53:30",1809024,9.04,276,3.048,0.236,17.85,108.0218,19.82,20.83,10.22,0,110.9,13.18,20.64,238.0
"2010-03-31 00:54:00",1809025,8.92,275.2,3.339,0.583,17.84,108.0165,19.8,20.81,10.28,0,110.9,13.18,20.62,237.2
"2010-03-31 00:54:30",1809026,8.62,279.1,2.823,0.544,17.76,108.003,19.77,20.8,10.34,0,110.9,13.18,20.59,241.1
"2010-03-31 00:55:00",1809027,8.05,286.6,3.911,0.337,17.82,107.9968,19.75,20.79,10.28,0,110.9,13.19,20.57,248.6
"2010-03-31 00:55:30",1809028,8.46,282.7,2.775,0.424,17.84,107.9959,19.75,20.78,10.25,0,110.9,13.19,20.57,244.7
"2010-03-31 00:56:00",1809029,8.55,277.7,3.597,0.279,17.85,107.9959,19.75,20.77,10.31,0,110.9,13.19,20.57,239.7
"2010-03-31 00:56:30",1809030,7.8,278.3,3.787,0.469,17.81,107.9959,19.75,20.77,10.34,0,110.9,13.19,20.57,240.3
"2010-03-31 00:57:00",1809031,8.68,282.8,2.747,0.943,17.84,107.994,19.74,20.75,10.34,0,110.9,13.19,20.57,244.8
"2010-03-31 00:57:30",1809032,9.83,281.1,2.556,0.233,17.9,107.9782,19.7,20.75,10.31,0,110.9,13.19,20.52,243.1
"2010-03-31 00:58:00",1809033,9.12,287.5,1.841,0.191,17.82,107.9656,19.67,20.74,10.31,0,110.9,13.19,20.49,249.5
"2010-03-31 00:58:30",1809034,9.54,285.3,1.434,0.184,17.85,107.9622,19.66,20.73,10.29,0,110.9,13.19,20.48,247.3
"2010-03-31 00:59:00",1809035,9.24,286.1,1.993,0.411,17.88,107.9634,19.67,20.72,10.31,0,110.9,13.19,20.49,248.1
"2010-03-31 00:59:30",1809036,8.46,285.2,2.417,0.234,17.88,107.964,19.67,20.71,10.33,0,110.9,13.19,20.49,247.2
"2010-03-31 01:00:00",1809037,8.69,283.8,3.089,0.267,17.87,107.9536,19.64,20.7,10.36,0,110.9,13.19,20.46,245.8
"2010-03-31 01:00:30",1809038,9.42,286.9,3.778,0.546,17.87,107.9408,19.61,20.68,10.35,0,110.9,13.19,20.43,248.9
"2010-03-31 01:01:00",1809039,9.42,287.4,2.526,0.349,17.84,107.9333,19.59,20.67,10.36,0,110.9,13.19,20.41,249.4
"2010-03-31 01:01:30",1809040,8.5,281.3,2.864,0.265,17.86,107.9373,19.6,20.65,10.41,0,110.9,13.19,20.42,243.3
"2010-03-31 01:02:00",1809041,8.3,280.4,2.521,0.429,17.91,107.9394,19.6,20.64,10.47,0,110.9,13.19,20.42,242.4
"2010-03-31 01:02:30",1809042,8.33,283.1,2.482,0.73,17.88,107.929,19.58,20.63,10.53,0,110.9,13.18,20.40,245.1
"2010-03-31 01:03:00",1809043,8.59,283.6,2.863,0.603,17.88,107.9144,19.54,20.61,10.5,0,110.9,13.18,20.36,245.6
"2010-03-31 01:03:30",1809044,7.959,286.4,2.911,0.35,17.82,107.9142,19.54,20.59,10.51,0,110.9,13.19,20.36,248.4
"2010-03-31 01:04:00",1809045,7.789,280.5,4.916,0.354,17.87,107.9151,19.54,20.59,10.55,0,110.9,13.19,20.36,242.5
"2010-03-31 01:04:30",1809046,7.466,279.2,3.318,0.31,17.88,107.9187,19.55,20.57,10.58,0,110.9,13.19,20.37,241.2
"2010-03-31 01:05:00",1809047,7.905,282.2,2.903,0.197,17.89,107.9081,19.52,20.55,10.59,0,110.9,13.19,20.34,244.2
"2010-03-31 01:05:30",1809048,8.12,281.9,2.414,0.174,17.91,107.8987,19.5,20.53,10.63,0,110.9,13.19,20.32,243.9
"2010-03-31 01:06:00",1809049,8.2,282.4,1.884,0.318,17.96,107.8947,19.49,20.52,10.66,0,110.9,13.19,20.31,244.4
"2010-03-31 01:06:30",1809050,7.821,279.5,2.712,0.407,18.05,107.8941,19.49,20.52,10.6,0,110.9,13.19,20.31,241.5
"2010-03-31 01:07:00",1809051,7.517,274.8,1.835,0.251,18.21,107.8965,19.49,20.49,10.57,0,110.9,13.2,20.31,236.8
"2010-03-31 01:07:30",1809052,7.596,278.4,3.915,0.22,18.16,107.8901,19.48,20.49,10.56,0,110.9,13.2,20.30,240.4
"2010-03-31 01:08:00",1809053,6.874,274.2,1.435,0.216,18.13,107.8721,19.43,20.47,10.58,0,110.9,13.2,20.25,236.2
"2010-03-31 01:08:30",1809054,6.764,272.7,1.757,0.362,18.29,107.8642,19.41,20.47,10.58,0,110.9,13.2,20.23,234.7
"2010-03-31 01:09:00",1809055,7.873,279.3,2.22,0.45,18.18,107.8636,19.41,20.44,10.55,0,110.9,13.2,20.23,241.3
"2010-03-31 01:09:30",1809056,8.34,280,3.969,0.384,18.2,107.8636,19.41,20.43,10.53,0,110.9,13.2,20.23,242.0
"2010-03-31 01:10:00",1809057,7.726,283.7,4.674,0.35,18.21,107.8617,19.4,20.42,10.55,0,110.9,13.2,20.22,245.7
"2010-03-31 01:10:30",1809058,7.014,266.2,3.792,0.277,18.3,107.8521,19.38,20.41,10.56,0,110.9,13.2,20.20,228.2
"2010-03-31 01:11:00",1809059,7.222,266.4,3.316,0.468,18.42,107.8369,19.34,20.39,10.57,0,110.9,13.2,20.16,228.4
"2010-03-31 01:11:30",1809060,7.148,268.7,10.38,0.331,18.36,107.8299,19.32,20.37,10.54,0,110.9,13.2,20.14,230.7
"2010-03-31 01:12:00",1809061,6.794,278.5,7.062,0.34,18.28,107.8299,19.32,20.37,10.63,0,110.9,13.2,20.14,240.5
"2010-03-31 01:12:30",1809062,7.431,285.8,3.166,0.623,18.15,107.8299,19.32,20.35,10.66,0,110.9,13.2,20.14,247.8
"2010-03-31 01:13:00",1809063,8.76,284.2,2.037,0.268,18.14,107.8279,19.32,20.33,10.73,0,110.9,13.21,20.14,246.2
"2010-03-31 01:13:30",1809064,8.68,279.9,2.564,0.526,18.46,107.815,19.29,20.33,10.68,0,110.9,13.21,20.10,241.9
"2010-03-31 01:14:00",1809065,8.42,283.7,3.338,0.846,18.37,107.7987,19.24,20.32,10.48,0,110.9,13.21,20.06,245.7
"2010-03-31 01:14:30",1809066,10.71,269.8,9.2,1.411,18.85,107.7961,19.24,20.31,10.28,0,110.9,13.21,20.06,231.8
"2010-03-31 01:15:00",1809067,10.24,255.1,6.482,0.818,18.7,107.7961,19.24,20.29,10,0,110.9,13.21,20.06,217.1
"2010-03-31 01:15:30",1809068,10.69,270.5,5.335,0.913,18.61,107.7982,19.24,20.29,10.02,0,110.9,13.21,20.06,232.5
"2010-03-31 01:16:00",1809069,7.507,280.5,3.405,0.681,18.5,107.8108,19.27,20.28,10.07,0,110.8,13.21,20.09,242.5
"2010-03-31 01:16:30",1809070,8.11,278.6,3.56,0.649,18.47,107.8238,19.31,20.28,10.15,0,110.8,13.21,20.13,240.6
"2010-03-31 01:17:00",1809071,8.83,283.1,2.16,0.427,18.41,107.8427,19.36,20.29,10.23,0,110.8,13.21,20.18,245.1
"2010-03-31 01:17:30",1809072,9.24,280.8,5.217,0.709,18.32,107.8542,19.39,20.28,10.42,0,110.8,13.21,20.21,242.8
"2010-03-31 01:18:00",1809073,8.9,287.1,6.988,0.977,18.22,107.8566,19.39,20.3,10.51,0,110.8,13.21,20.21,249.1
"2010-03-31 01:18:30",1809074,9.16,288.3,4.785,0.621,18.21,107.8569,19.39,20.3,10.61,0,110.8,13.21,20.21,250.3
"2010-03-31 01:19:00",1809075,8.84,274,6.6,1.779,18.2,107.8548,19.39,20.31,10.61,0,110.8,13.21,20.21,236.0
"2010-03-31 01:19:30",1809076,9.51,284.8,1.585,0.836,18.29,107.851,19.38,20.3,10.5,0,110.8,13.21,20.20,246.8
"2010-03-31 01:20:00",1809077,8.47,280,5.829,0.572,18.33,107.8441,19.36,20.31,10.34,0,110.8,13.21,20.18,242.0
"2010-03-31 01:20:30",1809078,7.139,274.2,8.74,0.712,18.29,107.8387,19.35,20.3,10.22,0,110.8,13.21,20.17,236.2
"2010-03-31 01:21:00",1809079,9.77,265.8,4.503,1.179,18.32,107.8322,19.33,20.28,10.25,0,110.8,13.21,20.15,227.8
"2010-03-31 01:21:30",1809080,10.65,273.9,11.76,2.126,18.17,107.8325,19.33,20.28,10.23,0,110.8,13.21,20.15,235.9
"2010-03-31 01:22:00",1809081,13.45,292.7,7.518,0.694,18.27,107.8325,19.33,20.27,9.99,0,110.8,13.21,20.15,254.7
"2010-03-31 01:22:30",1809082,12.17,289.7,4.119,1.217,18.27,107.8325,19.33,20.27,9.99,0,110.8,13.21,20.15,251.7
"2010-03-31 01:23:00",1809083,15.78,290.1,7.834,1.534,18.2,107.8325,19.33,20.27,9.91,0,110.8,13.21,20.15,252.1
"2010-03-31 01:23:30",1809084,14.56,288.4,5.162,0.954,18.14,107.8325,19.33,20.26,9.99,0,110.8,13.21,20.15,250.4
"2010-03-31 01:24:00",1809085,12.38,290.2,4.971,0.628,18.05,107.8185,19.29,20.26,10.09,0,110.8,13.21,20.11,252.2
"2010-03-31 01:24:30",1809086,15.16,275,4.855,0.716,18.16,107.8022,19.25,20.25,9.54,0,110.8,13.22,20.07,237.0
"2010-03-31 01:25:00",1809087,16.88,287.3,8.07,2.068,18.07,107.7988,19.24,20.25,9.8,0,110.8,13.22,20.06,249.3
"2010-03-31 01:25:30",1809088,17.49,295.9,2.618,1.219,18.16,107.7988,19.24,20.23,9.34,0,110.8,13.22,20.06,257.9
"2010-03-31 01:26:00",1809089,16.58,297.9,3.16,1.063,17.95,107.7988,19.24,20.23,9.48,0,110.8,13.22,20.06,259.9
"2010-03-31 01:26:30",1809090,13.22,297.1,3.325,0.677,17.9,107.7982,19.24,20.21,9.55,0,110.8,13.22,20.06,259.1
"2010-03-31 01:27:00",1809091,15.03,291.3,4.434,2.354,18,107.7836,19.2,20.2,9.68,0,110.8,13.22,20.02,253.3
"2010-03-31 01:27:30",1809092,16.77,284.8,3.794,0.922,18.04,107.7698,19.17,20.2,9.44,0,110.8,13.22,19.99,246.8
"2010-03-31 01:28:00",1809093,15.25,290.1,2.133,0.656,17.91,107.7653,19.16,20.18,9.53,0,110.8,13.22,19.98,252.1
"2010-03-31 01:28:30",1809094,17.79,293.8,6.352,1.532,17.9,107.7653,19.16,20.17,9.63,0,110.8,13.22,19.98,255.8
"2010-03-31 01:29:00",1809095,16.97,292.5,3.642,1.33,17.93,107.7623,19.15,20.16,9.55,0,110.8,13.22,19.97,254.5
"2010-03-31 01:29:30",1809096,17.57,291.9,3.648,2.185,18,107.7429,19.1,20.13,9.46,0,110.8,13.22,19.92,253.9
"2010-03-31 01:30:00",1809097,19.88,289.8,1.268,0.195,18.15,107.7379,19.09,20.12,9.07,0,110.8,13.22,19.91,251.8
"2010-03-31 01:30:30",1809098,19.3,289.4,1.111,0.261,18.14,107.7394,19.09,20.1,9.01,0,110.8,13.23,19.91,251.4
"2010-03-31 01:31:00",1809099,18.46,289.8,1.241,0.443,18,107.741,19.1,20.09,9.14,0,110.8,13.23,19.91,251.8
"2010-03-31 01:31:30",1809100,18.81,290.4,1.003,0.397,18.04,107.7417,19.1,20.08,9.18,0,110.8,13.23,19.92,252.4
"2010-03-31 01:32:00",1809101,18.69,289.6,1.63,0.58,17.99,107.7327,19.07,20.07,9.14,0,110.8,13.23,19.89,251.6
"2010-03-31 01:32:30",1809102,18.72,285.6,2.46,0.533,18,107.7253,19.05,20.06,9.31,0,110.8,13.23,19.87,247.6
"2010-03-31 01:33:00",1809103,17.18,284.7,2.696,0.62,17.94,107.719,19.04,20.05,9.41,0,110.8,13.23,19.86,246.7
"2010-03-31 01:33:30",1809104,17.13,286.9,2.804,0.623,17.96,107.7211,19.04,20.06,9.48,0,110.8,13.23,19.86,248.9
"2010-03-31 01:34:00",1809105,16.14,285.4,2.812,1.026,17.91,107.722,19.05,20.05,9.51,0,110.8,13.23,19.87,247.4
"2010-03-31 01:34:30",1809106,16.17,285.8,0.676,0.59,18.09,107.726,19.06,20.03,9.42,0,110.8,13.23,19.88,247.8
"2010-03-31 01:35:00",1809107,14.27,285.3,3.511,0.715,18.12,107.7278,19.06,20.02,9.42,0,110.7,13.23,19.88,247.3
"2010-03-31 01:35:30",1809108,16.02,285.1,3.195,1.022,17.96,107.7275,19.06,20.02,9.55,0,110.7,13.23,19.88,247.1
"2010-03-31 01:36:00",1809109,15.53,289.8,2.845,0.627,17.92,107.7287,19.06,20.02,9.65,0,110.7,13.23,19.88,251.8
"2010-03-31 01:36:30",1809110,15.48,291,2.844,1.232,17.92,107.717,19.03,20,9.66,0,110.7,13.23,19.85,253.0
"2010-03-31 01:37:00",1809111,17.96,292.8,3.79,1.266,17.85,107.708,19.01,20,9.68,0,110.7,13.23,19.83,254.8
"2010-03-31 01:37:30",1809112,16.32,301.8,3.788,1.041,17.69,107.7015,18.99,19.99,9.83,0,110.7,13.23,19.81,263.8
"2010-03-31 01:38:00",1809113,15.43,296.5,3.339,1.647,17.5,107.7001,18.99,19.97,10.07,0,110.7,13.23,19.81,258.5
"2010-03-31 01:38:30",1809114,18.7,291.1,1.577,0.945,18.39,107.6979,18.98,19.95,9.79,0,110.7,13.23,19.80,253.1
"2010-03-31 01:39:00",1809115,17.1,289.5,1.787,0.561,18.38,107.6846,18.95,19.93,9.71,0,110.7,13.23,19.77,251.5
"2010-03-31 01:39:30",1809116,14.65,285.9,3.932,0.621,18.36,107.6798,18.94,19.92,9.73,0,110.7,13.23,19.76,247.9
"2010-03-31 01:40:00",1809117,12.24,280.2,2.117,0.943,18.58,107.686,18.95,19.92,10.06,0,110.7,13.23,19.77,242.2
"2010-03-31 01:40:30",1809118,12.79,280.8,2.77,0.673,18.49,107.6964,18.98,19.91,10.17,0,110.7,13.23,19.80,242.8
"2010-03-31 01:41:00",1809119,10.95,278.5,2.351,0.616,18.49,107.7001,18.99,19.92,10.24,0,110.7,13.23,19.81,240.5
"2010-03-31 01:41:30",1809120,10.65,278.6,2.88,0.379,18.52,107.7001,18.99,19.92,10.32,0,110.7,13.24,19.81,240.6
"2010-03-31 01:42:00",1809121,11.57,283.7,2.481,0.627,18.38,107.7004,18.99,19.93,10.34,0,110.7,13.24,19.81,245.7
"2010-03-31 01:42:30",1809122,13.36,286.2,2.897,1.079,18.24,107.7052,19,19.95,9.4,0,110.7,13.24,19.82,248.2
"2010-03-31 01:43:00",1809123,13.04,291.4,4.365,0.926,18.21,107.7094,19.01,19.95,8.96,0,110.7,13.24,19.83,253.4
"2010-03-31 01:43:30",1809124,15.95,291.4,6.302,0.459,18.18,107.7209,19.04,19.98,8.63,0,110.7,13.24,19.86,253.4
"2010-03-31 01:44:00",1809125,16.9,292.5,3.042,0.822,18.07,107.7336,19.08,19.97,8.59,0,110.7,13.24,19.89,254.5
"2010-03-31 01:44:30",1809126,14.66,295,3.385,1.565,17.83,107.7339,19.08,19.99,8.85,0,110.7,13.24,19.90,257.0
"2010-03-31 01:45:00",1809127,17.22,290.6,3.293,0.981,18.09,107.7339,19.08,19.99,8.98,0,110.7,13.24,19.90,252.6
"2010-03-31 01:45:30",1809128,14.16,280.2,3.593,1.123,17.94,107.7339,19.08,20.01,9.03,0,110.7,13.24,19.90,242.2
"2010-03-31 01:46:00",1809129,14.63,284.6,1.959,1.337,17.69,107.7336,19.08,20.01,9.27,0,110.7,13.24,19.89,246.6
"2010-03-31 01:46:30",1809130,18.35,285.3,2.203,0.653,18.34,107.7243,19.05,20.02,9.26,0,110.7,13.24,19.87,247.3
"2010-03-31 01:47:00",1809131,15.99,284.5,1.816,0.986,18.36,107.7168,19.03,20.01,9.22,0,110.7,13.24,19.85,246.5
"2010-03-31 01:47:30",1809132,14.48,284.9,1.895,0.275,18.3,107.7188,19.04,20.01,8.92,0,110.7,13.24,19.86,246.9
"2010-03-31 01:48:00",1809133,15.12,284.1,1.575,0.695,18.3,107.7246,19.05,20.02,8.67,0,110.7,13.24,19.87,246.1